Location: Kouchibouguac National Park
(46.8081°N, 64.9088°W)
Time: 11:45:26
(UTC-03:00)

Amateur Radio Satellites - All Passes

Search period start: 24 July 2014 11:15
Search period end: 25 July 2014 11:15
Location: Kouchibouguac National Park, 46.8081°N, 64.9088°W

Satellite Date Start Highest point End Downlink Frequencies (MHz)
Time Altitude Azimuth
Sapphire 24 Jul 11:20:55 11:26:22 78° 56° (NE) 11:31:48 437.095 MHz 1200 baud AX-25 AFSK
Saudisat 1A 24 Jul 11:26:58 11:30:36 24° 323° (NW) 11:34:15 436.775 MHz
Oscar 11 24 Jul 11:27:59 11:32:19 75° 286° (WNW) 11:36:38 145.825 FM, Beacon 2401.500 USB
HO-68 24 Jul 11:29:31 11:36:28 56° 295° (WNW) 11:43:22 435.675 MHz FM
FUNcube-1 24 Jul 11:34:42 11:38:45 48° 99° (E) 11:42:47 145.950 - 145.970 MHz USB
JAS-1B 24 Jul 11:53:23 11:55:38 11° 30° (NNE) 11:57:55 435.800 - 435.900 CW/SSB
PCSat 24 Jul 11:55:02 12:00:21 56° 243° (WSW) 12:05:38 145.825 MHz
UKube-1 24 Jul 12:14:16 12:17:03 17° 300° (WNW) 12:19:49 145.840 MHz, 145.915 MHz
RS-15 24 Jul 12:47:16 12:51:24 13° 94° (E) 12:55:29 29.354 - 29.394 USB, Beacon 29.352 USB
Oscar 19 24 Jul 12:49:05 12:53:04 24° 61° (ENE) 12:57:04 437.125 CW, 437.150 USB
KITSAT 1 24 Jul 12:57:01 13:02:34 19° 4° (N) 13:08:07 435.175 FM
Sapphire 24 Jul 13:05:38 13:09:09 18° 255° (WSW) 13:12:39 437.095 MHz 1200 baud AX-25 AFSK
FUNcube-1 24 Jul 13:11:59 13:14:50 18° 297° (WNW) 13:17:40 145.950 - 145.970 MHz USB
Oscar 16 24 Jul 13:15:35 13:20:19 40° 67° (ENE) 13:25:05 437.025 USB, Beacon 2401.1428
HO-68 24 Jul 13:19:18 13:22:41 14° 316° (NW) 13:26:04 435.675 MHz FM
SO-50 24 Jul 13:24:27 13:26:35 13° 109° (ESE) 13:28:43 436.795 FM
ITAMSAT 1 24 Jul 13:26:20 13:30:32 25° 62° (ENE) 13:34:45 435.822 SSB
JAS-1B 24 Jul 13:35:21 13:43:03 34° 54° (NE) 13:51:22 435.800 - 435.900 CW/SSB
Gurwin Techsat 1B 24 Jul 13:38:59 13:41:56 15° 56° (NE) 13:44:53 435.225 FM
AO-27 24 Jul 13:43:32 13:48:13 35° 65° (ENE) 13:52:56 436.795 MHz FM
AO-Echo 24 Jul 13:45:11 13:49:58 36° 66° (ENE) 13:54:47 ?
Uribyol 2 24 Jul 13:46:25 13:51:11 38° 66° (ENE) 13:55:58 436.500 FM
AO-7 24 Jul 14:16:29 14:21:42 19° 42° (NE) 14:26:55 29.400 - 29.500 MHz
Oscar 19 24 Jul 14:27:06 14:32:05 54° 260° (W) 14:37:07 437.125 CW, 437.150 USB
RS-15 24 Jul 14:50:24 15:01:11 60° 116° (ESE) 15:11:47 29.354 - 29.394 USB, Beacon 29.352 USB
KITSAT 1 24 Jul 14:53:41 15:00:52 33° 33° (NNE) 15:08:00 435.175 FM
TMSAT-1 24 Jul 14:55:08 15:00:09 45° 68° (ENE) 15:05:11 436.925 FM
Oscar 16 24 Jul 14:55:20 14:59:47 30° 265° (W) 15:04:15 437.025 USB, Beacon 2401.1428
SO-50 24 Jul 15:01:58 15:06:27 84° 307° (NW) 15:11:03 436.795 FM
ITAMSAT 1 24 Jul 15:04:39 15:09:44 51° 260° (W) 15:14:51 435.822 SSB
Gurwin Techsat 1B 24 Jul 15:15:49 15:21:09 87° 74° (ENE) 15:26:30 435.225 FM
AO-27 24 Jul 15:22:56 15:27:43 36° 263° (W) 15:32:31 436.795 MHz FM
AO-Echo 24 Jul 15:23:51 15:28:42 36° 264° (W) 15:33:36 ?
JAS-1B 24 Jul 15:23:53 15:32:35 79° 256° (WSW) 15:42:28 435.800 - 435.900 CW/SSB
Uribyol 2 24 Jul 15:26:04 15:30:43 32° 264° (W) 15:35:22 436.500 FM
Uosat F 24 Jul 15:38:19 15:42:35 29° 63° (ENE) 15:46:53 435.120 FM
UOSAT-12 24 Jul 15:51:40 15:55:35 28° 115° (ESE) 15:59:34 437.025 FM, 437.400 FM
AO-7 24 Jul 16:04:44 16:12:56 63° 64° (ENE) 16:21:10 29.400 - 29.500 MHz
OPAL 24 Jul 16:10:01 16:12:26 13° 91° (E) 16:14:52 ?
Saudisat 1A 24 Jul 16:31:25 16:34:52 22° 35° (NE) 16:38:18 436.775 MHz
TMSAT-1 24 Jul 16:35:45 16:40:15 28° 266° (W) 16:44:47 436.925 FM
SO-50 24 Jul 16:44:30 16:47:44 19° 329° (NNW) 16:51:00 436.795 FM
KITSAT 1 24 Jul 16:49:05 16:57:13 85° 237° (WSW) 17:05:17 435.175 FM
Gurwin Techsat 1B 24 Jul 16:59:11 17:01:50 14° 273° (W) 17:04:30 435.225 FM
RS-15 24 Jul 17:03:08 17:13:49 52° 322° (NW) 17:24:28 29.354 - 29.394 USB, Beacon 29.352 USB
Uosat F 24 Jul 17:16:26 17:21:12 42° 262° (W) 17:26:01 435.120 FM
JAS-1B 24 Jul 17:18:38 17:24:44 20° 279° (W) 17:31:20 435.800 - 435.900 CW/SSB
UOSAT-12 24 Jul 17:31:05 17:35:33 46° 314° (NW) 17:40:06 437.025 FM, 437.400 FM
JAS-2 24 Jul 17:32:16 17:39:10 36° 62° (ENE) 17:45:43 435.800 - 435.900 CW/SSB, 435.910 FM
OPAL 24 Jul 17:46:54 17:51:58 86° 288° (WNW) 17:57:04 ?
AO-7 24 Jul 17:58:48 18:06:11 34° 264° (W) 18:13:38 29.400 - 29.500 MHz
Hamsat 24 Jul 18:06:41 18:10:45 52° 72° (ENE) 18:14:50 145.90 MHz
Saudisat 1A 24 Jul 18:10:31 18:14:56 72° 235° (SW) 18:19:18 436.775 MHz
KITSAT 1 24 Jul 18:46:00 18:51:29 20° 258° (WSW) 18:56:57 435.175 FM
SO-67 24 Jul 18:48:06 18:50:47 21° 67° (ENE) 18:53:28 435.3500 MHz FM
UOSAT-12 24 Jul 19:14:26 19:16:53 14° 337° (NNW) 19:19:20 437.025 FM, 437.400 FM
JAS-2 24 Jul 19:16:07 19:23:51 60° 260° (W) 19:31:14 435.800 - 435.900 CW/SSB, 435.910 FM
RS-15 24 Jul 19:19:59 19:29:20 31° 354° (N) 19:38:45 29.354 - 29.394 USB, Beacon 29.352 USB
Oscar 10/S400 24 Jul 19:21:30 19:32:35 17° 135° (SE) 19:46:43 145.825 - 145.975 CW/USB, Beacon 145.810 USB
OPAL 24 Jul 19:27:27 19:30:08 15° 307° (NW) 19:32:50 ?
Hamsat 24 Jul 19:44:29 19:47:03 16° 270° (W) 19:49:39 145.90 MHz
STRAND 1 24 Jul 20:01:58 20:07:02 59° 101° (ESE) 20:12:04 ?
UKube-1 24 Jul 20:03:17 20:04:01 10° 55° (NE) 20:04:44 145.840 MHz, 145.915 MHz
SO-50 24 Jul 20:11:22 20:13:00 12° 19° (NNE) 20:14:39 436.795 FM
HO-68 24 Jul 20:13:55 20:20:14 35° 59° (ENE) 20:26:34 435.675 MHz FM
SO-67 24 Jul 20:20:45 20:23:44 27° 265° (W) 20:26:45 435.3500 MHz FM
Oscar 11 24 Jul 20:51:50 20:54:17 15° 60° (ENE) 20:56:44 145.825 FM, Beacon 2401.500 USB
JAS-2 24 Jul 21:07:32 21:10:13 12° 279° (W) 21:12:52 435.800 - 435.900 CW/SSB, 435.910 FM
UKube-1 24 Jul 21:35:05 21:39:27 77° 74° (ENE) 21:43:51 145.840 MHz, 145.915 MHz
RS-15 24 Jul 21:35:16 21:45:28 41° 28° (NNE) 21:55:51 29.354 - 29.394 USB, Beacon 29.352 USB
STRAND 1 24 Jul 21:41:59 21:45:50 22° 300° (WNW) 21:49:39 ?
SO-50 24 Jul 21:50:39 21:54:58 34° 42° (NE) 21:59:20 436.795 FM
HO-68 24 Jul 22:00:39 22:07:40 56° 259° (WSW) 22:14:43 435.675 MHz FM
Oscar 11 24 Jul 22:25:42 22:29:59 67° 258° (WSW) 22:34:17 145.825 FM, Beacon 2401.500 USB
FUNcube-1 24 Jul 22:33:47 22:38:04 57° 73° (ENE) 22:42:16 145.950 - 145.970 MHz USB
UOSAT-12 24 Jul 22:38:31 22:41:24 16° 27° (NNE) 22:44:17 437.025 FM, 437.400 FM
MaSat-1 24 Jul 23:00:57 23:04:54 59° 114° (ESE) 23:09:32 437.345 MHz
UKube-1 24 Jul 23:14:33 23:16:12 12° 271° (W) 23:17:52 145.840 MHz, 145.915 MHz
SO-50 24 Jul 23:31:10 23:35:39 42° 241° (WSW) 23:40:10 436.795 FM
RS-15 24 Jul 23:48:04 23:59:07 85° 236° (SW) 00:10:32 29.354 - 29.394 USB, Beacon 29.352 USB
FUNcube-1 25 Jul 00:12:14 00:14:49 15° 270° (W) 00:17:24 145.950 - 145.970 MHz USB
UOSAT-12 25 Jul 00:17:52 00:22:34 57° 48° (NE) 00:27:12 437.025 FM, 437.400 FM
Lituanica SAT-1 25 Jul 00:35:27 00:37:15 24° 144° (SE) 00:39:03 437.275 MHz beacon
MaSat-1 25 Jul 00:39:21 00:42:45 22° 317° (NW) 00:46:31 437.345 MHz
PCSat 25 Jul 01:00:20 01:02:07 12° 102° (ESE) 01:03:54 145.825 MHz
Oscar 16 25 Jul 01:27:01 01:28:02 11° 86° (E) 01:29:03 437.025 USB, Beacon 2401.1428
ISS 25 Jul 01:35:37 01:38:14 22° 138° (SE) 01:40:53 145.800 FM
AO-40 25 Jul 01:37:59 05:32:59 27° 145° (SE) 07:04:33 Beacon 2401.320
UOSAT-12 25 Jul 01:58:43 02:02:22 22° 247° (WSW) 02:05:58 437.025 FM, 437.400 FM
RS-15 25 Jul 02:01:48 02:09:54 24° 259° (WSW) 02:18:14 29.354 - 29.394 USB, Beacon 29.352 USB
Sapphire 25 Jul 02:05:49 02:10:47 39° 113° (ESE) 02:15:47 437.095 MHz 1200 baud AX-25 AFSK
Lituanica SAT-1 25 Jul 02:07:51 02:09:50 35° 342° (NNW) 02:11:50 437.275 MHz beacon
Oscar 19 25 Jul 02:35:37 02:40:32 43° 98° (E) 02:45:27 437.125 CW, 437.150 USB
PCSat 25 Jul 02:39:11 02:44:34 75° 120° (ESE) 02:50:01 145.825 MHz
Oscar 16 25 Jul 03:03:03 03:08:14 78° 104° (ESE) 03:13:24 437.025 USB, Beacon 2401.1428
JAS-1B 25 Jul 03:07:25 03:16:08 36° 90° (E) 03:23:51 435.800 - 435.900 CW/SSB
TMSAT-1 25 Jul 03:09:33 03:12:11 14° 87° (E) 03:14:49 436.925 FM
ISS 25 Jul 03:11:19 03:14:40 73° 337° (NNW) 03:18:01 145.800 FM
ITAMSAT 1 25 Jul 03:14:31 03:19:31 45° 99° (E) 03:24:27 435.822 SSB
OPAL 25 Jul 03:26:52 03:31:18 34° 63° (ENE) 03:35:45 ?
AO-Echo 25 Jul 03:27:51 03:33:01 64° 101° (ESE) 03:37:58 ?
Gurwin Techsat 1B 25 Jul 03:29:33 03:34:06 28° 94° (E) 03:38:37 435.225 FM
AO-27 25 Jul 03:32:25 03:37:37 67° 102° (ESE) 03:42:45 436.795 MHz FM
Uribyol 2 25 Jul 03:35:04 03:40:15 73° 103° (ESE) 03:45:24 436.500 FM
Lituanica SAT-1 25 Jul 03:41:09 03:42:51 20° 2° (N) 03:44:33 437.275 MHz beacon
Sapphire 25 Jul 03:49:09 03:54:13 40° 313° (NW) 03:59:19 437.095 MHz 1200 baud AX-25 AFSK
AO-7 25 Jul 04:05:08 04:09:36 15° 85° (E) 04:14:01 29.400 - 29.500 MHz
Oscar 19 25 Jul 04:15:20 04:19:42 29° 296° (WNW) 04:24:04 437.125 CW, 437.150 USB
PCSat 25 Jul 04:24:11 04:28:34 25° 321° (NW) 04:33:00 145.825 MHz
Oscar 16 25 Jul 04:43:43 04:47:00 17° 302° (WNW) 04:50:17 437.025 USB, Beacon 2401.1428
TMSAT-1 25 Jul 04:47:30 04:52:50 87° 285° (WNW) 04:58:07 436.925 FM
ISS 25 Jul 04:48:34 04:51:41 34° 356° (N) 04:54:48 145.800 FM
ITAMSAT 1 25 Jul 04:54:27 04:58:48 28° 297° (WNW) 05:03:06 435.822 SSB
JAS-1B 25 Jul 04:57:33 05:07:11 66° 293° (WNW) 05:15:41 435.800 - 435.900 CW/SSB
OPAL 25 Jul 05:05:42 05:10:10 34° 261° (W) 05:14:40 ?
AO-Echo 25 Jul 05:07:33 05:11:17 20° 301° (WNW) 05:14:56 ?
Gurwin Techsat 1B 25 Jul 05:09:13 05:14:15 44° 292° (WNW) 05:19:15 435.225 FM
AO-27 25 Jul 05:12:56 05:16:38 20° 301° (WNW) 05:20:20 436.795 MHz FM
Lituanica SAT-1 25 Jul 05:13:45 05:15:48 46° 21° (NNE) 05:17:51 437.275 MHz beacon
Uribyol 2 25 Jul 05:15:42 05:19:11 19° 302° (WNW) 05:22:39 436.500 FM
Uosat F 25 Jul 05:20:55 05:25:47 47° 100° (E) 05:30:37 435.120 FM
Sapphire 25 Jul 05:36:53 05:39:13 13° 337° (NNW) 05:41:33 437.095 MHz 1200 baud AX-25 AFSK
MaSat-1 25 Jul 05:41:01 05:42:26 11° 30° (NNE) 05:43:51 437.345 MHz
STRAND 1 25 Jul 05:43:53 05:47:19 18° 58° (ENE) 05:50:45 ?
AO-7 25 Jul 05:55:31 06:03:53 72° 106° (ESE) 06:12:10 29.400 - 29.500 MHz
JAS-2 25 Jul 06:25:07 06:29:11 18° 85° (E) 06:32:57 435.800 - 435.900 CW/SSB, 435.910 FM
ISS 25 Jul 06:25:33 06:28:49 48° 16° (NNE) 06:32:05 145.800 FM
TMSAT-1 25 Jul 06:29:05 06:31:59 15° 304° (NW) 06:34:53 436.925 FM
Lituanica SAT-1 25 Jul 06:46:47 06:48:16 17° 218° (SW) 06:49:45 437.275 MHz beacon
JAS-1B 25 Jul 06:49:13 06:55:47 21° 316° (NW) 07:02:00 435.800 - 435.900 CW/SSB
Uosat F 25 Jul 07:00:14 07:04:19 26° 298° (WNW) 07:08:23 435.120 FM
MaSat-1 25 Jul 07:16:17 07:21:17 39° 52° (NE) 07:26:11 437.345 MHz
KITSAT 1 25 Jul 07:20:20 07:27:55 46° 113° (ESE) 07:35:31 435.175 FM
STRAND 1 25 Jul 07:20:48 07:25:57 74° 257° (WSW) 07:31:08 ?
Hamsat 25 Jul 07:25:09 07:29:27 75° 102° (ESE) 07:33:45 145.90 MHz
SO-67 25 Jul 07:42:08 07:44:28 17° 92° (E) 07:46:48 435.3500 MHz FM
AO-7 25 Jul 07:48:59 07:56:05 33° 307° (NW) 08:03:10 29.400 - 29.500 MHz
ISS 25 Jul 08:02:19 08:05:30 41° 215° (SW) 08:08:40 145.800 FM
JAS-2 25 Jul 08:08:49 08:15:11 76° 288° (WNW) 08:20:47 435.800 - 435.900 CW/SSB, 435.910 FM
Oscar 10/S400 25 Jul 08:14:46 09:12:31 18° 256° (WSW) 11:01:29 145.825 - 145.975 CW/USB, Beacon 145.810 USB
Saudisat 1A 25 Jul 08:21:38 08:24:03 15° 110° (ESE) 08:26:29 436.775 MHz
MaSat-1 25 Jul 08:53:46 08:58:41 38° 251° (WSW) 09:03:25 437.345 MHz
Hamsat 25 Jul 09:02:46 09:04:52 14° 300° (WNW) 09:06:59 145.90 MHz
Sapphire 25 Jul 09:07:55 09:11:19 16° 30° (NNE) 09:14:42 437.095 MHz 1200 baud AX-25 AFSK
SO-67 25 Jul 09:14:30 09:17:40 33° 289° (WNW) 09:20:50 435.3500 MHz FM
KITSAT 1 25 Jul 09:15:23 09:23:16 53° 315° (NW) 09:31:11 435.175 FM
UKube-1 25 Jul 09:23:26 09:24:12 10° 88° (E) 09:24:59 145.840 MHz, 145.915 MHz
HO-68 25 Jul 09:25:35 09:31:20 25° 92° (E) 09:37:02 435.675 MHz FM
PCSat 25 Jul 09:41:26 09:45:52 25° 39° (NE) 09:50:17 145.825 MHz
JAS-2 25 Jul 09:55:35 09:59:03 15° 310° (NW) 10:02:20 435.800 - 435.900 CW/SSB, 435.910 FM
Saudisat 1A 25 Jul 09:58:38 10:03:04 77° 308° (NW) 10:07:31 436.775 MHz
Oscar 11 25 Jul 10:11:18 10:14:19 18° 91° (E) 10:17:20 145.825 FM, Beacon 2401.500 USB
Sapphire 25 Jul 10:50:30 10:55:54 60° 53° (NE) 11:01:15 437.095 MHz 1200 baud AX-25 AFSK
UKube-1 25 Jul 10:56:39 11:01:02 86° 285° (WNW) 11:05:23 145.840 MHz, 145.915 MHz
